Погода в Клонакилти

Ирландия     51°37′13″N   8°53′25″W
темп.,
°C
ветер,
м/с
пор.,
м/с
влажн.,
%
обл.,
%
осадки,
мм/ч
давл.,
гПа
погр.,
м
6 мая, чт
чт601:00+6св5773100 0.0 1008325
04:00+6св6773100 0.1 1008460
07:00+5ссв7968100 0.1 1008381
10:00+7ссв785791 0.0 1010752
13:00+8всв34424 0.0 10111484
16:00+8ю535076 0.0 1012537
19:00+9з565151 0.0 1013824
22:00+8сз23595 0.0 1015397
7 мая, пт
пт701:00+6с33715 0.0 1016133
04:00+5св34744 0.0 1016170
07:00+6всв44715 0.0 1016278
10:00+7в556845 0.0 1017608
13:00+9юв786494 0.0 10151087
16:00+9юв91054100 0.0 1013889
19:00+9юв111375100 0.0 1010890
22:00+9вюв141893100 2.8 1005879
8 мая, сб
сб801:00+10юв152097100 13.5 997585
04:00+11ююз111998100 10.6 993471
07:00+11юз81296100 11.8 993380
10:00+11юз101288100 0.1 993510
13:00+11ююз9139299 0.1 993512
16:00+11ююз91391100 0.1 992556
19:00+11ююз111690100 0.3 990627
22:00+11ююз131885100 0.6 988776
9 мая, вс
вс901:00+11ююз141883100 1.5 987884
04:00+11ю141985100 0.7 984894
07:00+11ю151987100 1.4 9831113
10:00+11ююз14188897 0.8 982952
13:00+11ююз12168935 1.5 983763
16:00+11ююз1114898 0.4 983639
19:00+11юз912907 0.9 984559
22:00+10юз9128937 0.3 985654
10 мая, пн
пн1001:00+10зюз101387100 0.8 986892
04:00+9юз12158463 0.3 9861121
07:00+9юз14178490 0.8 9861213
10:00+8ююз161692100 0.5 986823
13:00+10зюз10128516 1.1 987874
16:00+10зюз12149189 0.4 988792
19:00+10зюз11138987 0.5 990791
22:00+10зюз9129129 0.1 992556